Date String (YYYY-MM-DD hh:mm:ss) UTC,Instrument flags,Ambient pressure (hPa),Sample flow (lpm),Bypass flow (lpm),Sample temperature (°C),Ambient temperature (°C),ASC tube jacket temperature (°C),LED temperature (°C),Box temperature (°C),Sample RH (%),Span deviation,Mass concentration (μg/m³),Mass concentration (μg/m³),Mass concentration (μg/m³)
DateTimeUTC,F1_M11,P_M11,Q1_M11,Q2_M11,T1_M11,T2_M11,T3_M11,T4_M11,T5_M11,U1_M11,ZSPAN_M11,X0_M11,X2_M11,X1_M11
2023-05-03 12:00:00,,0828.4,5.00,0.00,28.1,26.4,00.0,36.5,29.5,17.0,0000.0,0009.87,0004.59,0003.39
2023-05-03 12:01:00,,0828.4,5.00,0.00,28.1,26.4,00.0,36.5,29.5,16.8,0000.0,0009.65,0004.54,0003.38
2023-05-03 12:02:00,,0828.4,5.00,0.00,28.1,26.4,00.0,36.5,29.5,16.5,0000.0,0009.80,0004.58,0003.37
2023-05-03 12:03:00,,0828.4,5.00,0.00,28.1,26.4,00.0,36.5,29.6,17.0,0000.0,0009.84,0004.63,0003.38
2023-05-03 12:04:00,,0828.4,5.00,0.00,28.1,26.4,00.0,36.5,29.5,17.1,0000.0,0009.41,0004.66,0003.40
2023-05-03 12:05:00,,0828.4,5.01,0.00,28.1,26.4,00.0,36.5,29.6,17.1,0000.0,0009.59,0004.72,0003.41
2023-05-03 12:06:00,,0828.4,5.00,0.00,28.1,26.4,00.0,36.5,29.6,17.5,0000.0,0009.52,0004.78,0003.42
2023-05-03 12:07:00,,0828.4,5.01,0.00,28.1,26.4,00.0,36.5,29.6,17.1,0000.0,0009.83,0004.79,0003.44
2023-05-03 12:08:00,,0828.5,4.99,0.00,28.1,26.3,00.0,36.5,29.7,17.3,0000.0,0009.85,0004.77,0003.45
2023-05-03 12:09:00,,0828.5,5.00,0.00,28.1,26.3,00.0,36.5,29.7,17.5,0000.0,0010.05,0004.83,0003.48
2023-05-03 12:10:00,,0828.5,5.00,0.00,28.1,26.4,00.0,36.5,29.7,17.8,0000.0,0010.24,0004.86,0003.51
2023-05-03 12:11:00,,0828.4,5.00,0.00,28.1,26.4,00.0,36.5,29.6,17.8,0000.0,0010.27,0004.88,0003.55
2023-05-03 12:12:00,,0828.5,5.00,0.00,28.1,26.4,00.0,36.5,29.6,17.8,0000.0,0010.48,0004.98,0003.61
2023-05-03 12:13:00,,0828.5,5.00,0.00,28.0,26.4,00.0,36.5,29.6,17.9,0000.0,0010.98,0005.09,0003.68
2023-05-03 12:14:00,,0828.6,5.00,0.00,28.1,26.5,00.0,36.5,29.6,17.9,0000.0,0012.66,0005.18,0003.73
2023-05-03 12:15:00,,0828.6,5.00,0.00,28.1,26.5,00.0,36.5,29.6,17.9,0000.0,0013.59,0005.25,0003.77
2023-05-03 12:16:00,,0828.6,5.01,0.00,28.1,26.5,00.0,36.5,29.6,17.8,0000.0,0013.70,0005.30,0003.82
2023-05-03 12:17:00,,0828.5,5.00,0.00,28.1,26.5,00.0,36.4,29.6,17.8,0000.0,0013.71,0005.32,0003.86
2023-05-03 12:18:00,,0828.5,5.00,0.00,28.1,26.6,00.0,36.4,29.6,17.8,0000.0,0013.55,0005.36,0003.89
2023-05-03 12:19:00,,0828.5,5.00,0.00,28.1,26.5,00.0,36.5,29.6,17.8,0000.0,0013.77,0005.46,0003.92
2023-05-03 12:20:00,,0828.6,5.00,0.00,28.1,26.5,00.0,36.5,29.7,17.8,0000.0,0013.97,0005.54,0003.94
2023-05-03 12:21:00,,0828.6,5.00,0.00,28.1,26.5,00.0,36.4,29.6,17.8,0000.0,0014.07,0005.57,0003.93
2023-05-03 12:22:00,,0828.6,5.00,0.00,28.0,26.4,00.0,36.4,29.6,17.3,0000.0,0014.12,0005.55,0003.90
2023-05-03 12:23:00,,0828.6,5.00,0.00,28.0,26.4,00.0,36.4,29.6,17.5,0000.0,0014.12,0005.50,0003.87
2023-05-03 12:24:00,,0828.6,5.00,0.00,28.0,26.4,00.0,36.4,29.7,17.7,0000.0,0013.78,0005.41,0003.84
2023-05-03 12:25:00,,0828.6,5.00,0.00,28.0,26.4,00.0,36.4,29.7,17.8,0000.0,0012.27,0005.39,0003.83
2023-05-03 12:26:00,,0828.6,5.00,0.00,28.0,26.5,00.0,36.4,29.6,17.9,0000.0,0011.41,0005.39,0003.82
2023-05-03 12:27:00,,0828.6,5.00,0.00,28.1,26.5,00.0,36.4,29.6,17.9,0000.0,0011.31,0005.35,0003.81
2023-05-03 12:28:00,,0828.6,5.01,0.00,28.1,26.5,00.0,36.4,29.6,17.9,0000.0,0011.43,0005.39,0003.79
2023-05-03 12:29:00,,0828.6,5.00,0.00,28.1,26.6,00.0,36.4,29.6,17.9,0000.0,0011.40,0005.41,0003.79
2023-05-03 12:30:00,,0828.6,5.00,0.00,28.1,26.6,00.0,36.4,29.6,17.8,0000.0,0011.20,0005.38,0003.78
2023-05-03 12:31:00,,0828.6,5.00,0.00,28.1,26.5,00.0,36.4,29.7,17.7,0000.0,0011.17,0005.30,0003.75
2023-05-03 12:32:00,,0828.6,5.00,0.00,28.1,26.5,00.0,36.4,29.7,17.6,0000.0,0011.40,0005.24,0003.74
2023-05-03 12:33:00,,0828.6,4.99,0.00,28.0,26.4,00.0,36.4,29.6,17.7,0000.0,0011.54,0005.23,0003.74
2023-05-03 12:34:00,,0828.6,5.01,0.00,28.0,26.4,00.0,36.4,29.6,17.5,0000.0,0011.56,0005.26,0003.74
2023-05-03 12:35:00,,0828.6,5.01,0.00,28.0,26.4,00.0,36.4,29.6,17.5,0000.0,0011.58,0005.26,0003.73
2023-05-03 12:36:00,,0828.6,5.00,0.00,28.0,26.4,00.0,36.4,29.7,17.6,0000.0,0011.42,0005.17,0003.71
2023-05-03 12:37:00,,0828.7,5.01,0.00,28.0,26.4,00.0,36.4,29.6,17.7,0000.0,0011.21,0005.10,0003.70
2023-05-03 12:38:00,,0828.6,5.01,0.00,28.0,26.3,00.0,36.4,29.6,17.7,0000.0,0011.05,0005.05,0003.69
2023-05-03 12:39:00,,0828.7,4.99,0.00,28.0,26.3,00.0,36.4,29.6,17.7,0000.0,0010.92,0004.96,0003.68
2023-05-03 12:40:00,,0828.7,5.00,0.00,28.0,26.3,00.0,36.4,29.6,17.5,0000.0,0010.99,0004.99,0003.67
2023-05-03 12:41:00,,0828.7,5.00,0.00,28.0,26.3,00.0,36.4,29.6,17.4,0000.0,0011.06,0005.01,0003.65
2023-05-03 12:42:00,,0828.7,5.00,0.00,27.9,26.3,00.0,36.4,29.5,17.3,0000.0,0010.90,0004.99,0003.64
2023-05-03 12:43:00,,0828.8,5.00,0.00,27.9,26.2,00.0,36.4,29.4,17.4,0000.0,0010.57,0004.98,0003.63
2023-05-03 12:44:00,,0828.8,5.00,0.00,27.9,26.2,00.0,36.3,29.4,17.5,0000.0,0010.42,0004.98,0003.61
2023-05-03 12:45:00,,0828.7,5.00,0.00,27.9,26.2,00.0,36.3,29.4,17.6,0000.0,0010.47,0004.99,0003.60
2023-05-03 12:46:00,,0828.8,5.00,0.00,27.9,26.2,00.0,36.3,29.5,18.0,0000.0,0010.67,0005.02,0003.60
2023-05-03 12:47:00,,0828.8,5.00,0.00,27.9,26.2,00.0,36.3,29.5,18.3,0000.0,0010.64,0005.03,0003.60
2023-05-03 12:48:00,,0828.8,5.00,0.00,27.9,26.2,00.0,36.3,29.5,18.5,0000.0,0010.51,0005.03,0003.62
2023-05-03 12:49:00,,0828.8,5.00,0.00,27.9,26.2,00.0,36.3,29.5,18.4,0000.0,0011.39,0005.07,0003.63
2023-05-03 12:50:00,,0828.8,5.01,0.00,27.9,26.3,00.0,36.3,29.5,18.3,0000.0,0011.73,0005.15,0003.65
2023-05-03 12:51:00,,0828.8,5.00,0.00,27.9,26.3,00.0,36.3,29.5,18.1,0000.0,0012.19,0005.16,0003.67
2023-05-03 12:52:00,,0828.8,5.00,0.00,27.9,26.3,00.0,36.3,29.5,18.1,0000.0,0012.07,0005.12,0003.70
2023-05-03 12:53:00,,0828.9,5.00,0.00,27.9,26.3,00.0,36.3,29.5,18.1,0000.0,0012.31,0005.19,0003.73
2023-05-03 12:54:00,,0829.0,5.00,0.00,27.9,26.3,00.0,36.3,29.6,18.1,0000.0,0013.94,0005.24,0003.77
2023-05-03 12:55:00,,0829.0,5.00,0.00,27.9,26.4,00.0,36.3,29.6,18.1,0000.0,0014.39,0005.28,0003.81
2023-05-03 12:56:00,,0829.0,5.00,0.00,27.9,26.4,00.0,36.3,29.6,18.1,0000.0,0014.48,0005.34,0003.86
2023-05-03 12:57:00,,0829.0,5.00,0.00,27.9,26.4,00.0,36.3,29.5,18.1,0000.0,0014.24,0005.35,0003.89
2023-05-03 12:58:00,,0829.0,5.00,0.00,27.9,26.4,00.0,36.3,29.5,18.1,0000.0,0014.53,0005.40,0003.92
2023-05-03 12:59:00,,0828.9,5.00,0.00,28.0,26.5,00.0,36.3,29.5,18.1,0000.0,0014.85,0005.50,0003.93
